COSMOS 2012

Satellite information

Favourite Embed

Satellite Type and Status

PAYLOADIN ORBIT

Key statistics

Satellite COSMOS 2012 at a glance.

Uptime

13256

Days in orbit

Revolutions

≈ 12.5

Per day

Orbit

LEO

Low Earth Orbit

Inclination

74.0

Latest

Satellite identification and parameters

Extended collection of information and parameters for COSMOS 2012.

Object identification

Identified? True

Debris? False

Object name: COSMOS 2012

International designator: 1989-025E

Object number (NORAD): 19906

Object ID (CCSDS): 19906

Country: COMMONWEALTH OF INDEPENDENT STATES (CIS)

Current information (Y/N): Y

RCS size: MEDIUM

Orbital parameters

Period: 115.178 minutes

Inclination: 74.0106 deg

SMA: 7841.629 km

Apoapsis: 1471.518 km

Periapsis: 1455.471 km

RAAN: 34.2648 deg

Eccentricy: 0.0010232

Argument of periapsis: 15.6653 deg

Mean anomaly: 93.9697 deg

Mean motion: 12.50239797 rev/day

Mean motion (dot): 0.00000009 rev/day2

B* drag term: 0.00016083 1/REarth

Two-line elements (TLE)

Creation date: July 9, 2025, 2:22 a.m.

Reference frame: TEME

Reference center: EARTH

Epoch: July 8, 2025, 8:56 p.m. UTC

TLE line 0: 0 COSMOS 2012

TLE line 1: 1 19906U 89025E 25189.87253861 .00000009 00000-0 16083-3 0 9994

TLE line 2: 2 19906 74.0106 34.2648 0010232 15.6653 93.9697 12.50239797656360

Live tracking on map

Real-time ground track for satellite COSMOS 2012.

In-orbit conjunctions

There are no conjunctions computed for COSMOS 2012, at the moment. Check back to stay up to date, as we update our databases every day.

Go to all conjunctions

Associated space launch

Military communications satellites

COSMOS 2012 was lifted into orbit during the mission ‘Kosmos-3M | Strela-1M 337-344’, on board a Kosmos-3M space rocket.

The launch took place on March 24, 1989, 1:38 p.m. from 132/2.

For more information about the launch, click the button.

Launch to space Kosmos-3M | Strela-1M 337-344
Kosmos-3M | Strela-1M 337-344

Agency: N/A

Status: Launch Successful

Launch date: March 24, 1989, 1:38 p.m. UTC

Rocket: Kosmos-3M

Launch pad: 132/2

Location: Plesetsk Cosmodrome, Russian Federation

...

Latest news about this satellite

There are no fresh news available about this satellite. Check back as we update our databases every day.


Newsletter sign-up

Weekly statistics, charts and insights to help you stay on top of the space industry.